Content
SEND FEEDBACK

Daily
Averages
Monthly
Summary
Sweden

RONNEBY, SWEDEN


Home > Europe > Sweden
Elevation: 243 feet     Latitude: 56 16N     Longitude: 015 17E

WEATHER
 
SELECT A DAY
Number of Records: 293,032;   Date Range: 1/10/97 - 7/24/14
 
SHARE

PRINT THIS DATA

[ ← Previous Day ]
WEATHER ALMANAC - JANUARY 31, 2013
[ Next Day → ]
[ °C ]   °F
Weather ElementAverageHighLow
Temperature38.6 °F42.8 °F (2:50 pm)33 °F (11:00 pm)
Dewpoint34.5 °F38 °F (9:00 am)32 °F (3:20 pm)
Humidity84 %93 % (3:50 am)60 % (3:00 pm)
Barometer29.18 in29.34 in (11:00 pm)29.03 in (5:50 am)
Wind Speed11.9 mph21.9 mph (11:20 am)
Wind Gust35.7 mph (1:20 pm)
Weather ElementAverage
Visibility6.4 mi
Wind DirectionWSW (255.5 °)

Weather ElementTotal
Precipitation---
Heating Degree Days27.1 (Base 65)
Averaged from 67 records on January 31, 2013
WEATHER CONDITIONS BREAKOUT
WIND DIRECTION BREAKOUT
WEATHER BY HOUR - JANUARY 31, 2013
[ °C ]   °F
Local TimeTemperatureDewpointHumidityBarometerVisibilityWind DirectionWind SpeedGust SpeedPrecipitationEventsConditions
12:20 AM39.2 °F35.6 °F87 %29.18 in6.2 miSW (230°)10.4 mphOvercast
12:50 AM39.2 °F35.6 °F87 %29.18 in6.2 miWSW (240°)9.2 mphOvercast
1:00 AM40.0 °F36.0 °F79 %29.19 in10.0 miWSW (240°)8.9 mphClear
1:20 AM41.0 °F35.6 °F81 %29.18 in6.2 miSW (230°)10.4 mphOvercast
1:50 AM39.2 °F35.6 °F87 %29.15 in6.2 miSW (230°)10.4 mphOvercast
2:00 AM39.0 °F35.0 °F80 %29.18 in9.0 miSW (230°)8.9 mph
2:20 AM39.2 °F35.6 °F87 %29.15 in6.2 miSW (230°)9.2 mphLight Drizzle
2:50 AM39.2 °F35.6 °F87 %29.15 in5.6 miSSW (200°)11.5 mphRainLight Rain
3:00 AM38.0 °F35.0 °F85 %29.16 in5.0 miSW (220°)11.2 mphRainLight Rain Showers
3:20 AM39.2 °F35.6 °F87 %29.12 in3.1 miSW (220°)11.5 mphRainLight Rain
3:50 AM37.4 °F35.6 °F93 %29.12 inSSW (210°)12.7 mphRainLight Rain
4:20 AM37.4 °F35.6 °F93 %29.09 in3.1 miSSW (200°)13.8 mph25.3 mphLight Drizzle
4:50 AM37.4 °F35.6 °F93 %29.06 in5.6 miSSW (200°)12.7 mphLight Drizzle
5:00 AM37.0 °F36.0 °F92 %29.09 in5.0 miSW (230°)11.2 mphRainLight Rain
5:20 AM39.2 °F35.6 °F87 %29.06 in4.3 miSSW (210°)12.7 mph24.2 mphSnowSnow Grains
5:50 AM39.2 °F35.6 °F87 %29.03 in4.3 miWSW (240°)13.8 mph
6:00 AM38.0 °F36.0 °F89 %29.05 in6.0 miWSW (240°)13.4 mphSnowLight Snow Showers
6:20 AM39.2 °F37.4 °F93 %29.03 in5.0 miWSW (240°)13.8 mph25.3 mphRainLight Rain Showers
6:50 AM39.2 °F35.6 °F87 %29.03 in6.2 miWSW (240°)15.0 mphRainLight Rain Showers
7:00 AM38.0 °F36.0 °F92 %29.05 in6.0 miWSW (240°)13.4 mphRainLight Rain Showers
7:20 AM39.2 °F35.6 °F87 %29.03 in5.6 miWSW (240°)12.7 mphRainLight Rain Showers
7:50 AM39.2 °F37.4 °F93 %29.03 in5.0 miWSW (240°)12.7 mph24.2 mphMostly Cloudy
8:00 AM39.0 °F37.0 °F91 %29.04 in5.0 miWSW (250°)13.4 mphRainLight Rain Showers
8:20 AM39.2 °F37.4 °F93 %29.03 in5.0 miWSW (250°)12.7 mphRainLight Rain Showers
8:50 AM41.0 °F37.4 °F87 %29.03 in4.3 miWest (260°)15.0 mphRainLight Rain Showers
9:00 AM40.0 °F38.0 °F89 %29.06 in4.0 miWest (260°)13.4 mphRainLight Rain Showers
9:20 AM41.0 °F37.4 °F87 %29.06 in4.3 miWest (270°)16.1 mph28.8 mphRainLight Rain Showers
9:50 AM39.2 °F37.4 °F93 %29.06 in5.0 miWest (270°)17.3 mphMostly Cloudy
10:20 AM39.2 °F37.4 °F93 %29.09 in6.2 miWest (270°)17.3 mphMostly Cloudy
10:50 AM39.2 °F37.4 °F93 %29.09 in6.2 miWest (270°)18.4 mphMostly Cloudy
11:00 AM40.0 °F36.0 °F82 %29.12 in9.0 miWest (270°)17.9 mphPartly Cloudy
11:20 AM39.2 °F35.6 °F87 %29.09 in6.2 miWest (280°)21.9 mphMostly Cloudy
11:50 AM41.0 °F35.6 °F81 %29.12 in6.2 miWest (280°)17.3 mph29.9 mphScattered Clouds
12:00 PM41.0 °F36.0 °F77 %29.14 in9.0 miWest (280°)15.7 mphPartly Cloudy
12:20 PM41.0 °F35.6 °F81 %29.12 in6.2 miWest (280°)17.3 mphPartly Cloudy
12:50 PM41.0 °F35.6 °F81 %29.15 in6.2 miWest (280°)17.3 mph28.8 mphMostly Cloudy
1:00 PM42.0 °F35.0 °F68 %29.17 in9.0 miWest (270°)20.1 mphPartly Cloudy
1:20 PM41.0 °F33.8 °F76 %29.18 in6.2 miWest (280°)21.9 mph35.7 mphMostly Cloudy
1:50 PM41.0 °F33.8 °F76 %29.18 in6.2 miWNW (290°)18.4 mphMostly Cloudy
2:00 PM42.0 °F34.0 °F64 %29.21 in12.0 miWNW (290°)20.1 mphMostly Cloudy
2:20 PM41.0 °F33.8 °F76 %29.21 in6.2 miWNW (290°)19.6 mph32.2 mphScattered Clouds
2:50 PM42.8 °F33.8 °F70 %29.21 in6.2 miWNW (290°)19.6 mph35.7 mphPartly Cloudy
3:00 PM42.0 °F33.0 °F60 %29.24 in12.0 miWNW (290°)20.1 mphScattered Clouds
3:20 PM41.0 °F32.0 °F70 %29.24 in6.2 miWest (280°)16.1 mphPartly Cloudy
3:50 PM41.0 °F32.0 °F70 %29.24 in6.2 miWest (280°)13.8 mphPartly Cloudy
4:20 PM39.2 °F32.0 °F75 %29.27 in6.2 miWest (280°)13.8 mphPartly Cloudy
4:50 PM39.2 °F32.0 °F75 %29.27 in6.2 miWest (280°)15.0 mphScattered Clouds
5:00 PM39.0 °F32.0 °F67 %29.29 in11.0 miWest (280°)11.2 mph
5:20 PM39.2 °F32.0 °F75 %29.27 in6.2 miWest (280°)10.4 mphRainLight Rain
5:50 PM39.2 °F32.0 °F75 %29.27 in6.2 miWest (280°)5.8 mphScattered Clouds
6:00 PM38.0 °F33.0 °F75 %29.30 in9.0 miWest (270°)6.7 mph
6:20 PM37.4 °F33.8 °F87 %29.27 in6.2 miWest (260°)5.8 mphMostly Cloudy
6:50 PM37.4 °F33.8 °F87 %29.27 in6.2 miSW (230°)5.8 mphMostly Cloudy
7:00 PM36.0 °F33.0 °F84 %29.30 in8.0 miWSW (250°)4.5 mph
7:20 PM37.4 °F32.0 °F81 %29.30 in6.2 miWSW (250°)6.9 mphPartly Cloudy
7:50 PM37.4 °F32.0 °F81 %29.30 inWest (260°)4.6 mphClear
8:00 PM36.0 °F33.0 °F82 %29.31 in7.0 miWest (260°)4.5 mph
8:20 PM35.6 °F32.0 °F87 %29.30 in6.2 miWSW (240°)4.6 mphPartly Cloudy
8:50 PM35.6 °F32.0 °F87 %29.30 in6.2 miWest (260°)5.8 mphPartly Cloudy
9:00 PM35.0 °F32.0 °F86 %29.32 in7.0 miWest (270°)4.5 mph
9:20 PM35.6 °F32.0 °F87 %29.30 in6.2 miWest (270°)3.5 mphPartly Cloudy
9:50 PM35.6 °F33.8 °F93 %29.30 in5.6 miWest (280°)3.5 mphMostly Cloudy
10:20 PM33.8 °F32.0 °F93 %29.30 in6.2 miWSW (240°)3.5 mphPartly Cloudy
10:50 PM33.8 °F32.0 °F93 %29.30 in6.2 miWSW (250°)4.6 mph
11:00 PM33.0 °F32.0 °F93 %29.34 in6.0 miWest (270°)4.5 mph
11:20 PM33.8 °F32.0 °F93 %29.33 in6.2 miWest (260°)4.6 mph
11:50 PM33.8 °F32.0 °F93 %29.33 in6.2 miWest (270°)4.6 mphPartly Cloudy
Hourly data recorded from ESDF, located miles away from Ronneby, Sweden







STORIES FROM OUR PARTNERS